Orange, MA

9:10 AM EDT on June 25, 2017 (GMT -0400)
Orange Municipal

Weather History for KORE - December, 2012

Change the Weather History Date:

Wednesday, December 26, 2012

  Actual Average Record
Temperature  
Mean Temperature 24 °F -  
Max Temperature 32 °F 32 °F 51 °F (2015)
Min Temperature 16 °F 15 °F -5 °F (2000)
Degree Days  
Heating Degree Days 41    
Moisture  
Dew Point 20 °F    
Average Humidity 77    
Maximum Humidity 96    
Minimum Humidity 48    
Precipitation  
Precipitation 0.20 in - - ()
Sea Level Pressure  
Sea Level Pressure 30.12 in    
Wind  
Wind Speed 6 mph (NNE)    
Max Wind Speed 10 mph    
Max Gust Speed 18 mph    
Visibility 6 miles    
Events Fog , Snow    
Averages and records for this station are not official NWS values.
T = Trace of Precipitation, MM = Missing Value Source: NWS Daily Summary

Daily Weather History Graph

Daily Weather History Graph

Search for Another Location

Airport or City:

Trip Planner

Search our weather history database for the weather conditions in past years. The results will help you decide how hot, cold, wet, or windy it might be!

Date:

Astronomy

Dec. 26, 2012 Rise Set
Actual Time 7:17 AM EST 4:22 PM EST
Civil Twilight 6:45 AM EST 4:54 PM EST
Nautical Twilight 6:10 AM EST 5:29 PM EST
Astronomical Twilight 5:36 AM EST 6:04 PM EST
Moon 3:13 PM EST (12/26) 5:38 AM EST (12/26)
Length of Visible Light 10h 08m
Length of Day
9h 04m
Waxing Gibbous, 97% of the Moon is Illuminated
Dec 26
Waxing Gibbous
Dec 28
Full
Jan 4
Last Quarter
Jan 11
New
Jan 18
First Quarter

Hourly Weather History & Observations

Time (EST) Temp. Windchill Dew Point Humidity Pressure Visibility Wind Dir Wind Speed Gust Speed Precip Events Conditions
1:52 AM 19.0 °F 9.0 °F 12.0 °F 74% 30.31 in 10.0 mi NW 8.1 mph - N/A   Clear
2:52 AM 19.0 °F 9.0 °F 12.0 °F 74% 30.32 in 10.0 mi NNW 8.1 mph - N/A   Clear
3:52 AM 18.0 °F 8.7 °F 10.9 °F 74% 30.30 in 10.0 mi NNW 6.9 mph - N/A   Clear
4:52 AM 17.1 °F 6.6 °F 10.0 °F 74% 30.30 in 10.0 mi NNW 8.1 mph - N/A   Clear
5:52 AM 17.1 °F 11.7 °F 9.0 °F 71% 30.29 in 10.0 mi North 3.5 mph - N/A   Clear
6:52 AM 16.0 °F 10.4 °F 9.0 °F 74% 30.30 in 10.0 mi North 3.5 mph - N/A   Clear
7:52 AM 17.1 °F 11.7 °F 9.0 °F 71% 30.31 in 10.0 mi NNW 3.5 mph - N/A   Clear
8:52 AM 19.0 °F - 10.0 °F 68% 30.33 in 10.0 mi Calm Calm - N/A   Clear
9:52 AM 21.0 °F 14.6 °F 10.9 °F 65% 30.34 in 10.0 mi WNW 4.6 mph - N/A   Clear
10:52 AM 25.0 °F - 12.0 °F 58% 30.30 in 10.0 mi Calm Calm - N/A   Clear
11:52 AM 28.0 °F - 12.0 °F 51% 30.26 in 10.0 mi Calm Calm - N/A   Clear
12:52 PM 30.0 °F 26.5 °F 12.9 °F 49% 30.24 in 10.0 mi NW 3.5 mph - N/A   Clear
1:52 PM 32.0 °F - 14.0 °F 48% 30.21 in 10.0 mi Calm Calm - N/A   Clear
2:52 PM 32.0 °F 25.6 °F 16.0 °F 52% 30.22 in 10.0 mi East 6.9 mph - N/A   Clear
3:52 PM 30.9 °F 25.2 °F 14.0 °F 50% 30.19 in 10.0 mi East 5.8 mph - N/A   Clear
4:52 PM 30.0 °F 24.1 °F 14.0 °F 51% 30.20 in 10.0 mi ENE 5.8 mph - N/A   Partly Cloudy
6:52 PM 30.0 °F 24.1 °F 23.0 °F 75% 30.13 in 10.0 mi ENE 5.8 mph - N/A   Overcast
7:52 PM 30.9 °F 26.2 °F 25.0 °F 79% 30.09 in 10.0 mi Variable 4.6 mph - N/A   Overcast
8:35 PM 30.2 °F 23.4 °F 26.6 °F 86% 30.03 in 1.8 mi ENE 6.9 mph 18.4 mph 0.00 in Snow Light Snow
8:41 PM 30.2 °F 21.3 °F 26.6 °F 86% 30.02 in 1.0 mi ENE 10.4 mph 16.1 mph 0.00 in Snow Light Snow
8:44 PM 30.2 °F 21.9 °F 26.6 °F 86% 30.02 in 0.8 mi ENE 9.2 mph 16.1 mph 0.00 in Snow Light Snow
8:52 PM 30.0 °F 21.7 °F 28.0 °F 92% 30.04 in 0.5 mi ENE 9.2 mph - 0.01 in Fog , Snow Snow
9:52 PM 30.0 °F 23.2 °F 28.9 °F 96% 30.00 in 0.5 mi NE 6.9 mph - 0.08 in Fog , Snow Snow
10:07 PM 30.2 °F 21.9 °F 28.4 °F 93% 29.94 in 1.0 mi NE 9.2 mph - 0.01 in Snow Light Snow
10:14 PM 30.2 °F 22.6 °F 28.4 °F 93% 29.93 in 0.8 mi NE 8.1 mph 18.4 mph 0.02 in Snow Light Snow
10:28 PM 30.2 °F 23.4 °F 28.4 °F 93% 29.92 in 1.0 mi NE 6.9 mph 16.1 mph 0.03 in Snow Light Snow
10:52 PM 30.9 °F 25.2 °F 28.0 °F 89% 29.94 in 1.0 mi NE 5.8 mph - 0.04 in Snow Light Snow
10:54 PM 30.2 °F 22.6 °F 28.4 °F 93% 29.92 in 1.0 mi NE 8.1 mph - 0.00 in Snow Light Snow
10:57 PM 30.2 °F 23.4 °F 28.4 °F 93% 29.92 in 0.8 mi NE 6.9 mph - 0.01 in Snow Light Snow
11:07 PM 30.2 °F 22.6 °F 28.4 °F 93% 29.90 in 0.5 mi ENE 8.1 mph - 0.02 in Fog , Snow Snow
11:44 PM 30.2 °F 21.9 °F 28.4 °F 93% 29.87 in 0.8 mi NE 9.2 mph - 0.06 in Snow Light Snow
11:52 PM 30.9 °F 23.5 °F 28.9 °F 92% 29.88 in 0.8 mi NE 8.1 mph - 0.07 in Snow Light Snow
11:59 PM 30.2 °F 23.4 °F 28.4 °F 93% 29.85 in 1.0 mi NE 6.9 mph - 0.00 in Snow Light Snow